SCP
0 0 -0 -0 0 0 0 0 0 0 0 0 0 0 0 0 0 0 0 0 0 0 0 1 1 1 1 1 1 1 1 1 1 1 1 0 0 0 0 0 0 0 0 0
0 0 0 0 0 0 0 0 0 0 0 0 0 0 0 0 0 0 0 0 0 0 0 1 1 1 1 1 1 1 1 1 1 1 1 1 0 0 0 0 0 0 0 0
0 0 0 0 0 0 0 0 0 0 0 0 0 0 0 0 0 0 0 0 0 0 1 1 1 1 1 1 1 1 1 1 1 1 1 1 1 0 0 0 0 0 0 0
0 0 0 0 0 0 0 0 0 0 0 0 0 0 0 0 0 0 0 0 0 0 1 1 1 1 1 1 1 1 1 1 1 1 1 1 1 1 1 0 0 0 0 0
0 0 0 0 0 0 0 0 0 0 0 0 0 0 0 0 0 0 0 0 1 1 1 1 1 1 1 1 1 1 1 1 1 1 1 1 1 1 1 1 1 1 1 1
0 0 0 0 0 0 0 0 0 0 0 0 0 0 0 0 0 0 0 0 1 1 1 0 0 0 1 1 1 1 1 1 1 1 1 1 1 1 1 1 1 1 1 0
0 0 0 0 0 0 0 0 0 0 0 0 0 0 0 0 0 0 0 0 1 1 0 0 0 0 1 1 1 1 1 1 1 1 1 1 1 1 1 1 1 1 0 0
0 0 0 0 0 0 0 0 0 0 0 0 0 0 0 0 0 0 0 0 0 0 0 0 0 0 0 1 1 1 1 1 1 1 1 1 1 1 1 1 1 1 0 0
0 0 0 0 0 0 0 0 0 0 0 0 0 0 0 0 0 0 0 0 0 0 0 0 0 0 0 1 1 1 1 1 1 1 1 1 1 1 1 1 1 1 1 0
0 0 0 0 0 0 0 0 0 0 0 0 0 0 0 0 0 0 0 0 0 0 0 0 0 0 0 1 1 1 1 1 1 1 1 1 1 1 1 1 1 1 1 1
0 0 0 0 0 0 0 0 0 0 0 0 0 0 0 0 0 0 0 0 0 0 0 0 0 0 0 1 1 1 1 1 1 1 1 1 1 1 1 1 1 1 0 0
0 0 0 0 0 0 0 0 0 0 0 0 0 0 0 0 0 0 0 0 0 0 0 0 0 0 0 0 1 1 1 1 1 1 1 1 1 1 1 1 0 0 0 0
0 0 0 0 0 0 0 0 0 0 0 0 0 0 0 0 0 0 0 0 0 0 0 0 0 0 0 0 1 1 1 1 1 1 1 1 1 1 1 1 0 0 0 0
0 0 0 0 0 0 0 0 0 0 0 0 0 0 0 0 0 0 0 0 0 0 0 1 1 1 1 1 1 1 1 1 1 1 1 1 1 1 0 0 0 0 0 0
0 0 0 0 0 0 0 0 0 0 0 0 0 0 0 0 0 0 0 0 0 0 1 1 1 1 1 1 1 1 1 1 1 1 1 1 1 0 0 0 0 0 0 0
0 0 0 0 0 0 0 0 0 0 0 0 0 0 0 0 0 0 0 0 0 1 1 1 1 1 1 1 0 0 0 1 1 1 0 0 0 0 0 0 0 0 0 0
0 0 0 0 0 0 0 0 0 0 0 0 0 0 0 0 0 0 0 0 1 1 1 1 1 1 1 1 0 0 0 0 0 0 0 0 0 0 0 0 0 0 0 0
0 0 0 0 0 0 0 0 0 0 0 0 0 0 0 0 0 0 0 0 1 1 1 1 1 1 1 1 1 1 0 0 0 0 0 0 0 0 0 0 0 0 0 0
0 0 0 0 0 0 0 0 0 0 0 0 0 0 0 0 0 0 0 0 0 0 1 1 1 1 1 1 1 1 1 0 0 0 0 0 0 0 0 0 0 0 0 0
0 0 0 0 0 0 0 0 0 0 0 0 0 0 0 0 0 0 0 0 0 0 0 0 0 0 1 1 1 1 1 0 0 0 0 0 0 0 0 0 0 0 0 0
0 0 0 0 0 0 0 0 0 0 0 0 0 0 0 0 0 0 0 0 1 0 0 0 0 0 0 1 1 1 0 0 0 0 0 0 0 0 0 0 0 0 0 0
0 0 0 0 0 0 0 0 0 0 0 0 0 0 0 0 0 0 0 0 1 0 0 0 0 0 0 0 0 0 0 0 0 0 0 0 0 0 0 0 0 0 0 0
0 0 0 0 0 0 0 0 0 0 0 0 0 0 0 0 0 0 0 0 0 0 0 0 0 0 0 0 0 0 0 0 0 0 0 0 0 0 0 0 0 0 0 0
0 0 0 0 0 0 0 0 0 0 0 0 0 0 0 0 0 0 0 0 0 0 0 0 0 0 0 0 0 0 0 0 0 0 0 0 0 0 0 0 0 0 0 0
0 0 0 0 0 0 0 0 0 0 0 0 0 0 0 0 0 0 0 0 0 0 0 0 0 0 0 0 0 0 0 0 0 0 0 0 0 0 0 0 0 0 0 0
0 0 0 0 0 0 0 0 0 0 0 0 0 0 0 0 0 0 0 0 0 0 0 0 0 0 0 0 0 0 0 0 0 0 0 0 0 0 0 0 0 0 0 0
Wind_Speed
11 12 13 13 13 12 9 11 11 7 4 8 10 9 7 6 7 7 7 7 7 7 7 7 7 7 8 8 8 8 8 8 6 5 5 5 5 4 4 4 4 4 4 4
12 15 14 10 10 12 12 12 11 7 4 7 9 9 7 6 7 6 7 7 7 7 7 7 8 8 8 8 8 8 8 8 8 6 4 4 3 4 3 3 4 4 4 4
16 8 9 11 12 13 13 13 11 8 6 8 10 11 9 7 6 6 6 7 7 7 7 8 9 9 9 8 8 7 7 7 7 6 5 4 4 4 4 4 4 4 4 4
14 11 9 12 13 13 13 10 10 10 10 8 8 9 7 7 7 6 6 6 6 6 7 8 9 9 9 8 8 7 7 7 7 7 6 6 5 5 4 3 3 4 4 3
10 10 12 14 13 13 11 7 9 11 11 11 10 11 6 7 7 7 6 5 6 6 7 8 9 9 9 8 7 7 7 7 7 7 7 6 5 4 3 3 4 3 3 3
11 8 10 12 11 11 9 8 9 11 11 13 11 11 7 5 6 5 5 5 5 5 6 7 7 8 8 8 7 7 7 7 7 8 7 6 5 4 4 4 4 3 3 3
12 12 12 11 11 10 11 10 8 10 10 10 6 9 5 0 1 3 4 4 4 5 6 7 7 8 8 8 8 7 8 7 7 8 7 6 5 5 5 4 3 3 2 2
11 11 12 11 13 11 13 14 10 8 9 7 7 8 3 2 1 2 3 3 4 5 6 7 7 7 8 8 8 7 7 7 8 8 7 6 6 5 4 3 3 3 2 2
7 7 8 8 10 11 12 13 13 11 10 10 7 5 4 3 3 3 3 3 4 5 6 7 7 7 7 7 7 7 7 7 8 8 7 6 6 4 4 4 3 3 2 2
7 7 7 8 9 11 11 10 9 11 10 11 10 9 5 5 4 3 3 3 3 4 5 6 6 6 6 6 6 6 7 7 7 7 6 6 6 5 4 4 3 2 2 2
8 8 6 9 10 11 10 11 11 11 11 11 9 5 1 3 3 3 3 3 3 4 5 5 5 6 6 6 6 6 6 7 6 6 6 6 6 5 4 4 4 3 3 3
7 8 9 9 7 7 10 11 11 11 10 11 10 3 3 1 2 2 2 2 2 3 4 5 6 5 5 6 6 6 6 6 6 6 6 6 5 5 5 4 4 4 3 3
4 7 9 9 10 10 11 11 11 11 10 10 11 4 4 1 1 1 1 2 2 3 4 5 5 5 5 5 6 6 6 6 6 6 7 6 6 5 5 4 4 4 4 3
6 8 11 10 6 6 10 11 11 12 11 11 12 7 3 2 1 1 1 2 3 3 4 4 4 4 4 4 5 6 6 6 6 6 6 6 5 5 5 4 4 4 4 4
5 9 10 9 7 8 10 11 12 13 13 12 9 7 4 2 3 2 2 2 2 3 3 3 3 3 4 4 5 5 5 5 5 6 6 6 5 5 4 4 4 4 4 4
4 7 7 8 8 9 10 11 12 12 12 11 10 8 3 1 2 2 2 3 3 3 3 3 3 4 3 3 4 4 5 5 5 6 6 5 5 5 5 4 4 4 4 3
6 6 8 9 8 9 11 10 10 10 9 9 10 5 2 2 3 3 3 3 3 3 3 3 2 3 3 3 4 4 5 5 5 5 5 5 5 5 5 4 4 4 3 3
8 8 7 7 8 12 3 1 5 7 6 5 6 5 4 3 3 3 3 3 3 2 2 2 2 2 2 2 3 4 5 6 6 5 5 5 5 4 4 4 3 3 3 3
9 8 7 7 9 7 4 3 4 6 5 2 4 4 3 1 3 3 2 2 2 2 2 2 2 2 3 2 3 4 4 5 5 5 4 4 4 4 4 3 3 3 3 3
7 8 8 8 9 7 2 1 2 5 5 1 2 3 2 3 4 1 2 1 1 2 2 3 3 3 3 3 3 4 4 3 3 3 4 4 4 4 3 3 2 2 2 3
6 7 9 10 9 2 3 2 3 6 1 4 2 1 2 2 3 2 1 1 2 3 3 3 4 3 3 3 3 3 3 2 2 2 2 3 3 4 4 3 3 3 3 2
4 4 6 7 9 3 3 0 1 3 4 3 3 2 1 1 2 1 1 2 2 3 3 3 3 3 3 3 3 3 2 2 2 2 2 2 3 3 3 3 3 3 3 3
3 3 3 3 1 4 1 1 2 2 2 3 3 3 2 1 1 0 0 1 3 3 3 3 3 4 3 3 2 2 2 2 2 2 2 2 3 2 3 3 3 3 3 2
2 3 3 3 2 1 1 1 2 3 3 3 3 3 2 2 2 1 1 1 2 3 3 3 4 3 3 3 2 2 3 2 2 2 2 2 3 3 3 2 3 2 2 2
4 3 4 5 4 3 2 2 3 3 3 3 3 3 3 2 2 2 1 2 2 2 3 3 3 3 3 3 2 3 3 2 1 2 2 2 2 2 2 2 1 2 1 0
5 5 6 5 4 4 4 3 4 4 3 3 3 3 3 3 3 2 1 0 1 2 2 3 3 3 3 3 3 3 3 3 2 2 2 2 2 2 2 3 3 2 1 2
Wind_Direction
193 213 218 218 226 252 262 256 253 248 247 253 251 256 252 235 229 226 220 211 205 202 185 170 170 170 167 168 172 177 179 174 181 185 190 188 184 186 185 182 176 189 196 194
201 223 229 233 230 239 247 250 251 247 241 261 260 258 247 229 230 230 225 214 207 196 181 171 169 171 172 172 175 179 181 180 188 187 195 195 185 187 183 179 178 190 195 206
220 222 216 222 221 230 236 248 253 257 252 239 260 247 226 217 218 216 220 214 202 192 186 177 174 175 176 177 179 181 183 184 188 182 184 177 174 183 182 187 185 190 193 197
230 231 218 220 223 230 241 238 254 255 253 243 241 262 217 207 207 211 213 205 192 187 188 183 180 178 180 180 175 176 181 184 183 184 189 188 189 189 185 189 177 184 193 203
219 215 217 224 230 230 246 245 246 249 251 258 239 255 229 199 216 216 210 208 201 196 191 186 185 183 180 178 175 172 175 181 184 189 188 196 197 187 179 179 168 190 184 203
239 224 229 233 232 230 235 230 232 240 243 245 242 246 251 212 227 221 206 200 201 198 190 184 179 177 177 175 176 173 174 179 184 188 187 195 192 188 183 185 178 190 183 194
224 222 222 230 225 213 219 227 224 221 225 241 222 239 251 156 196 223 216 202 192 191 183 180 178 176 176 176 178 176 176 180 183 186 186 185 188 189 190 198 184 201 190 192
222 216 204 211 221 218 215 226 240 246 243 237 205 233 208 135 175 210 196 189 176 178 177 180 182 180 181 179 179 177 177 180 182 184 180 180 184 191 186 195 207 194 205 205
237 226 181 201 217 229 219 225 243 261 265 258 234 223 186 201 192 183 175 175 177 182 177 179 182 183 182 180 181 178 177 179 180 180 176 177 179 182 174 175 199 199 201 206
260 250 209 201 213 221 238 231 229 239 246 249 238 231 219 194 210 198 188 189 184 180 179 177 179 178 178 178 175 175 176 177 177 176 175 171 174 175 176 182 184 193 199 201
248 249 215 202 216 215 210 217 229 239 246 254 254 238 114 194 204 210 211 205 196 188 184 182 176 173 172 172 171 172 173 172 172 172 168 167 169 169 174 183 186 190 195 192
227 253 243 222 214 243 230 229 227 237 239 247 262 248 83 174 185 198 199 197 191 182 177 175 169 169 173 174 170 169 172 172 170 169 167 167 168 164 173 178 182 185 188 196
229 239 239 220 208 213 225 226 228 237 247 248 251 231 110 155 213 216 196 185 176 163 164 167 168 171 174 170 169 168 172 171 168 169 171 168 172 168 174 178 180 182 187 198
258 244 248 251 249 222 223 225 228 233 239 244 247 252 210 206 230 236 213 185 160 143 142 151 161 168 169 170 169 167 164 163 166 168 165 160 166 169 175 182 183 185 191 202
254 247 248 259 261 247 238 230 227 232 246 256 254 252 266 248 229 226 210 167 149 138 137 141 146 154 161 164 169 166 158 158 159 161 163 164 166 169 173 180 182 184 193 202
242 260 247 243 239 238 237 234 231 235 242 251 255 256 277 302 237 222 197 176 162 154 152 145 143 149 156 164 169 164 161 160 163 165 167 166 170 172 173 178 185 188 193 199
237 245 245 239 223 233 234 232 233 231 236 246 255 266 257 244 237 229 206 189 180 172 162 153 147 146 155 165 169 173 170 165 166 170 171 170 175 179 179 182 184 185 189 196
244 248 250 245 222 231 215 203 243 236 236 256 264 272 269 267 247 223 208 194 178 168 159 153 145 136 132 153 161 160 164 166 168 169 171 172 176 178 175 178 181 181 183 193
229 237 248 243 234 228 188 195 231 237 228 254 265 269 263 265 220 180 150 155 153 150 144 142 141 130 131 143 148 150 155 161 166 164 168 170 171 170 173 176 178 179 182 187
204 225 242 243 244 239 152 108 265 243 223 49 286 274 243 230 234 132 86 85 125 137 133 129 136 129 124 126 137 148 150 151 164 171 172 167 168 169 170 169 172 173 183 182
201 213 229 242 244 228 47 18 237 234 52 29 351 293 256 256 329 40 92 146 142 138 132 130 135 131 120 127 137 143 142 144 146 156 167 164 169 173 164 156 160 173 182 174
248 239 225 238 238 216 49 166 276 10 26 6 3 6 345 356 29 76 130 148 145 142 135 133 134 129 126 135 141 132 115 98 111 129 145 154 166 177 151 154 162 175 180 180
258 289 285 277 318 53 42 24 23 12 351 356 351 356 352 331 319 310 169 157 147 149 144 143 145 137 136 143 145 131 109 95 96 121 137 143 156 160 156 168 172 178 189 201
240 290 265 254 244 293 316 355 354 356 345 339 337 331 324 311 311 307 268 162 160 155 155 156 155 151 145 150 150 128 123 131 138 144 152 156 167 167 159 189 188 185 193 209
284 269 255 246 254 266 268 315 332 341 340 334 342 348 342 319 311 306 267 185 174 163 161 165 167 161 151 153 151 146 144 150 159 157 162 167 170 162 166 179 191 208 184 276
261 267 264 262 264 273 286 309 318 318 321 328 330 332 329 321 304 289 261 171 163 158 161 163 164 160 154 154 150 156 166 168 181 183 183 187 181 168 184 179 162 86 49 117